EW9136 Weather Reports


Display with metric or nautical units.
time (UTC)temp
F
wind
direction
speed
MPH
gust
MPH
rain 1hr
in
rain 24hr
in
rain mn
in
humidity
%
barometer
mb
20260505010037 45 213 2.0 4.0 0.00 0.00 0.00 93 1013.7
20260505004539 45 213 2.0 4.0 0.00 0.00 0.00 92 1013.8
20260505003033 46 214 2.0 4.0 0.00 0.00 0.00 92 1013.9
20260505001531 46 214 1.0 3.0 0.00 0.00 0.00 91 1013.9
20260505000037 47 214 2.0 5.0 0.00 0.01 0.00 91 1014.0
20260504234530 48 233 2.0 3.0 0.00 0.01 0.00 90 1014.1
20260504233027 49 231 3.0 7.0 0.00 0.01 0.00 91 1014.1
20260504231526 49 237 3.0 10.0 0.00 0.01 0.00 91 1014.1
20260504230025 49 222 5.0 8.0 0.00 0.02 0.00 91 1014.1
20260504224524 49 167 5.0 10.0 0.00 0.02 0.00 91 1014.1
20260504223034 49 174 5.0 9.0 0.00 0.02 0.00 91 1014.3
20260504221526 49 167 4.0 8.0 0.00 0.02 0.00 91 1014.5
20260504220023 49 204 1.0 8.0 0.00 0.04 0.00 90 1014.5
20260504214525 50 190 1.0 9.0 0.00 0.04 0.00 90 1014.5
20260504213033 50 169 4.0 11.0 0.00 0.04 0.00 90 1014.6
20260504211528 50 160 6.0 10.0 0.00 0.04 0.00 89 1014.6
20260504210021 51 191 7.0 11.0 0.00 0.05 0.00 89 1014.6
20260504204534 50 165 6.0 12.0 0.00 0.05 0.00 89 1014.6
20260504203024 50 191 7.0 15.0 0.00 0.05 0.00 89 1014.6
20260504201520 50 160 8.0 12.0 0.00 0.05 0.00 88 1014.5
20260504200019 50 167 7.0 14.0 0.00 0.05 0.00 88 1014.5
20260504194518 51 135 3.0 11.0 0.00 0.05 0.00 87 1014.4
20260504193019 51 140 5.0 10.0 0.00 0.05 0.00 86 1014.3
20260504191518 51 136 5.0 12.0 0.00 0.05 0.00 86 1014.3
20260504190017 51 163 4.0 11.0 0.00 0.05 0.00 85 1014.2
20260504184517 52 175 5.0 12.0 0.00 0.05 0.00 84 1014.2
20260504183016 52 183 6.0 13.0 0.00 0.05 0.00 83 1014.1
20260504181517 52 151 5.0 14.0 0.00 0.05 0.00 83 1014.2
20260504180018 53 170 7.0 14.0 0.00 0.05 0.00 82 1014.3
20260504174517 53 156 8.0 12.0 0.00 0.05 0.00 81 1014.3
20260504173014 54 182 7.0 14.0 0.00 0.05 0.00 81 1014.4
20260504171513 54 159 6.0 13.0 0.00 0.05 0.00 80 1014.4
20260504140158 58 175 2.0 11.0 0.00 0.07 0.00 76 1015.3
20260504081519 48 29 4.0 7.0 0.00 0.11 0.00 91 1015.7
20260504050155 45 36 2.0 5.0 0.00 0.33 0.00 97 1014.1
20260504044603 45 50 2.0 5.0 0.00 0.33 0.00 97 1014.2
20260504043057 45 42 3.0 9.0 0.00 0.33 0.00 97 1014.2
20260504041555 45 48 3.0 9.0 0.00 0.33 0.00 97 1014.2
20260504040104 45 37 4.0 9.0 0.00 0.35 0.00 97 1014.1
20260504034610 45 39 2.0 4.0 0.00 0.35 0.00 97 1014.1
20260504033047 45 35 3.0 5.0 0.00 0.35 0.00 97 1013.9
20260504031547 45 39 2.0 6.0 0.00 0.35 0.00 97 1013.9
20260504024549 45 40 2.0 4.0 0.00 0.35 0.00 97 1013.8
20260504023044 45 36 2.0 5.0 0.00 0.35 0.00 97 1013.7
20260504021544 45 32 4.0 9.0 0.00 0.35 0.00 97 1013.6
20260504020040 45 10 5.0 10.0 0.00 0.35 0.00 97 1013.5
20260504014538 45 46 5.0 9.0 0.00 0.35 0.00 97 1013.5
20260504013047 45 34 5.0 9.0 0.00 0.35 0.00 97 1013.5
20260504011534 45 26 5.0 10.0 0.00 0.35 0.00 97 1013.5